Location: Unspecified
(38.4667°N, 0.0000°E)
Time: 04:15:05
(UTC+00:00)

ACS3 Solar Sail - Visible Passes

Search period start: 04 April 2026 00:00
Search period end: 14 April 2026 00:00
Orbit: 874 x 980 km, 97.2° (Epoch: 29 March)

Date Brightness Start Highest point End Pass type
(mag) Time Alt. Az. Time Alt. Az. Time Alt. Az.
4 Apr 3.5 01:44:06 10° N 01:46:32 26° N 01:46:32 26° N visible
5 Apr 4.3 00:12:55 10° NE 00:13:20 12° NE 00:13:20 12° NE visible
5 Apr 3.4 01:54:20 10° N 01:56:56 26° N 01:56:56 26° N visible
6 Apr 4.2 00:22:38 10° NE 00:23:41 14° NE 00:23:41 14° NE visible
6 Apr 3.4 02:04:35 10° N 02:07:17 26° NNW 02:07:17 26° NNW visible
7 Apr 4.0 00:32:24 10° NNE 00:33:58 17° NE 00:33:58 17° NE visible
7 Apr 3.4 02:14:48 10° N 02:17:34 24° NNW 02:17:34 24° NNW visible
8 Apr 3.8 00:42:11 10° NNE 00:44:12 21° NE 00:44:12 21° NE visible
8 Apr 3.4 02:25:02 10° NNW 02:27:47 22° NW 02:27:47 22° NW visible
9 Apr 3.7 00:51:59 10° NNE 00:54:22 24° NNE 00:54:22 24° NNE visible
9 Apr 3.5 02:35:15 10° NNW 02:37:56 20° NW 02:37:56 20° NW visible
10 Apr 3.5 01:01:46 10° NNE 01:04:28 28° NNE 01:04:28 28° NNE visible
10 Apr 3.6 02:45:31 10° NNW 02:48:03 17° NW 02:48:03 17° NW visible
11 Apr 3.3 01:11:32 10° NNE 01:14:31 31° NNE 01:14:31 31° NNE visible
11 Apr 3.7 02:55:52 10° NNW 02:58:05 15° NW 02:58:05 15° NW visible
12 Apr 3.1 01:21:17 10° N 01:24:30 34° N 01:24:30 34° N visible
12 Apr 3.8 03:06:23 10° NW 03:08:04 12° NW 03:08:04 12° NW visible
12 Apr 4.3 23:50:37 10° NE 23:50:52 11° NE 23:50:52 11° NE visible
13 Apr 3.0 01:31:01 10° N 01:34:26 36° N 01:34:26 36° N visible
13 Apr 3.9 03:17:59 10° NW 03:18:00 10° NW 03:18:00 10° NW visible
